This demonstration page uses our WeatherBlox Daily Observations layout. Learn more.

Left ArrowRight Arrow

31.31129, -92.44514

Hourly Observations for December 9, 2022

Temp ( °F °C ) Dew Point ( °F °C ) Humidity (%) Winds ( mph kmh ) Pressure ( in mb ) Visibility ( mi km ) Precip ( " mm )
12:06 am 00:06 Mostly Cloudy with Mist and Fog 69 20.6 65 18.3 87 87 SW 8 13 30.12 1020 6 10 0.00 0.00
12:53 am 00:53 Cloudy with Mist and Fog 69 20.6 65 18.3 87 87 SW 8 13 30.12 1020 5 8 0.00 0.00
1:53 am 01:53 Cloudy with Mist and Fog 70 21.1 66 18.9 87 87 SW 5 7 30.12 1020 5 8 0.00 0.00
2:26 am 02:26 Cloudy with Mist and Fog 69 20.6 65 18.3 87 87 SW 5 7 30.12 1020 6 10 0.00 0.00
2:53 am 02:53 Mostly Cloudy with Mist and Fog 69 20.6 65 18.3 87 87 Calm 30.12 1020 6 10 0.00 0.00
3:53 am 03:53 Mostly Cloudy with Mist and Fog 67 19.4 64 17.8 90 90 SE 5 7 30.12 1020 4 6 0.00 0.00
4:07 am 04:07 Partly Cloudy with Mist and Fog 67 19.4 64 17.8 90 90 SSE 5 7 30.11 1020 4 6 0.00 0.00
4:24 am 04:24 Mostly Clear with Mist and Fog 66 18.9 64 17.8 93 93 SE 3 6 30.11 1020 2 3 0.00 0.00
4:41 am 04:41 Mostly Cloudy with Mist and Fog 66 18.9 64 17.8 93 93 SSE 3 6 30.11 1020 2 3 0.00 0.00
4:49 am 04:49 Mostly Cloudy with Mist and Fog 66 19 64 18 94 94 SSE 3 6 30.11 1020 1 1 0.00 0.00
4:53 am 04:53 Mostly Cloudy with Fog 66 18.9 64 17.8 93 93 SSE 3 6 30.12 1020 1 1 0.00 0.00
5:02 am 05:02 Cloudy with Fog 66 18.9 64 17.8 93 93 S 3 6 30.12 1020 0 0 0.00 0.00
5:36 am 05:36 Mostly Cloudy with Mist and Fog 64 17.8 62 16.7 93 93 SE 3 6 30.12 1020 1 2 0.00 0.00
5:49 am 05:49 Partly Cloudy with Mist and Fog 66 19 64 18 94 94 Calm 30.12 1020 1 2 0.00 0.00
5:53 am 05:53 Mostly Clear with Mist and Fog 65 18.3 64 17.8 97 97 Calm 30.13 1020 1 2 0.00 0.00
6:02 am 06:02 Mostly Clear with Fog 64 17.8 62 16.7 93 93 SE 3 6 30.12 1020 0 0 0.00 0.00
6:08 am 06:08 Mostly Clear with Fog 64 17.8 61 16.1 90 90 SE 3 6 30.12 1020 0 0 0.00 0.00
6:33 am 06:33 Mostly Clear with Fog 64 17.8 63 17.2 96 96 Calm 30.13 1020 0 0 0.00 0.00
6:40 am 06:40 Cloudy with Fog 64 17.8 62 16.7 93 93 Calm 30.13 1020 0 0 0.00 0.00
6:53 am 06:53 Cloudy with Fog 62 16.7 60 15.6 93 93 Calm 30.14 1021 0 0 0.00 0.00
7:09 am 07:09 Cloudy with Fog 63 17.2 61 16.1 93 93 Calm 30.13 1020 0 0 0.00 0.00
7:16 am 07:16 Cloudy with Fog 64 17.8 61 16.1 90 90 Calm 30.14 1021 0 0 0.00 0.00
7:31 am 07:31 Cloudy with Fog 64 17.8 62 16.7 93 93 SE 3 6 30.14 1021 0 0 0.00 0.00
7:44 am 07:44 Cloudy with Fog 66 18.9 64 17.8 93 93 Calm 30.14 1021 0 0 0.00 0.00
7:53 am 07:53 Cloudy with Fog 67 19.4 65 18.3 93 93 Calm 30.15 1021 0 0 0.00 0.00
8:28 am 08:28 Cloudy with Mist and Fog 68 20 66 18.9 93 93 Calm 30.15 1021 1 2 0.00 0.00
8:42 am 08:42 Cloudy with Mist and Fog 68 20 66 18.9 93 93 Calm 30.16 1021 3 4 0.00 0.00
8:53 am 08:53 Cloudy with Mist and Fog 69 20.6 67 19.4 93 93 Calm 30.17 1022 3 5 0.00 0.00
9:53 am 09:53 Mostly Cloudy with Mist and Fog 71 21.7 67 19.4 87 87 S 3 6 30.17 1022 6 10 0.00 0.00
10:01 am 10:01 Hazy 73 22.8 68 20 84 84 S 3 6 30.16 1021 6 10 0.00 0.00
10:53 am 10:53 Partly Cloudy 77 25 67 19.4 71 71 SW 5 7 30.16 1021 8 13 0.00 0.00
11:04 am 11:04 Mostly Cloudy 77 25 67 19.4 71 71 WSW 7 11 30.15 1021 9 14 0.00 0.00
11:32 am 11:32 Mostly Cloudy 79 26.1 66 18.9 65 65 WNW 8 13 30.13 1020 9 14 0.00 0.00
11:53 am 11:53 Mostly Cloudy 80 26.7 66 18.9 62 62 WNW 7 11 30.13 1020 8 13 0.00 0.00
12:53 pm 12:53 Mostly Sunny 79 26.1 65 18.3 62 62 SW 5 7 30.10 1019 9 14 0.00 0.00
1:53 pm 13:53 Partly Cloudy 80 26.7 63 17.2 56 56 W 8 13 30.08 1019 9 14 0.00 0.00
2:53 pm 14:53 Sunny 81 27.2 63 17.2 54 54 Calm 30.07 1018 10 16 0.00 0.00
3:53 pm 15:53 Mostly Cloudy 81 27.2 62 16.7 53 53 WSW 3 6 30.07 1018 10 16 0.00 0.00
4:53 pm 16:53 Partly Cloudy 78 25.6 64 17.8 62 62 NE 5 7 30.07 1018 9 14 0.00 0.00
5:53 pm 17:53 Partly Cloudy 76 24.4 64 17.8 67 67 E 3 6 30.08 1019 9 14 0.00 0.00
6:53 pm 18:53 Mostly Cloudy 73 22.8 64 17.8 73 73 E 6 9 30.09 1019 8 13 0.00 0.00
7:53 pm 19:53 Mostly Cloudy 72 22.2 65 18.3 79 79 S 5 7 30.10 1019 7 11 0.00 0.00
8:53 pm 20:53 Cloudy 70 21.1 64 17.8 81 81 Calm 30.10 1019 7 11 0.00 0.00
9:53 pm 21:53 Mostly Cloudy with Haze 71 21.7 64 17.8 79 79 ESE 3 6 30.10 1019 6 10 0.00 0.00
10:53 pm 22:53 Mostly Cloudy with Haze 69 20.6 64 17.8 84 84 Calm 30.11 1020 4 6 0.00 0.00
11:53 pm 23:53 Cloudy with Mist and Fog 68 20 65 18.3 90 90 SSE 6 9 30.10 1019 5 8 0.00 0.00

Powered by AerisWeather